Hourly Data Report for October 26, 2014

All times are specified in Local Standard Time (LST). Add 1 hour to adjust for Daylight Saving Time where and when it is observed.

OTTAWA INTL A
ONTARIO

45°19'00.000" N
75°40'00.000" W
114.90 m
6106001
71628
YOW

Download Data

Hourly Data (October 2014)
Hourly Data Report for October 26, 2014
Temp Definition
°C
Dew Point Temp Definition
°C
Rel Hum Definition
%
Wind Dir Definition
10's deg

Wind Spd Definition
km/h
Visibility Definition
km
Stn Press Definition
kPa
Hmdx Definition


Wind Chill Definition


Weather Definition


TIME
00:00 Legend Double Dagger 7.9 7.2 95 25 16 16.1 98.39     Rain
01:00 Legend Double Dagger 7.9 7.0 94 26 14 16.1 98.38     Mostly Cloudy
02:00 Legend Double Dagger 7.8 6.8 93 28 14 16.1 98.42     Rain
03:00 Legend Double Dagger 7.4 6.4 93 27 14 24.1 98.41     LegendNANA
04:00 Legend Double Dagger 7.3 6.3 93 27 14 16.1 98.44     Rain
05:00 Legend Double Dagger 7.0 5.6 91 27 16 16.1 98.49     Rain
06:00 Legend Double Dagger 6.7 5.0 89 28 22 24.1 98.52     LegendNANA
07:00 Legend Double Dagger 6.3 4.6 89 28 21 24.1 98.59     Cloudy
08:00 Legend Double Dagger 6.5 4.7 88 28 21 24.1 98.67     LegendNANA
09:00 Legend Double Dagger 7.0 4.0 81 30 27 24.1 98.71     LegendNANA
10:00 Legend Double Dagger 7.6 2.9 72 30 29 24.1 98.75     Mostly Cloudy
11:00 Legend Double Dagger 8.2 2.7 68 29 26 24.1 98.80     LegendNANA
12:00 Legend Double Dagger 9.4 3.2 65 30 30 24.1 98.83     LegendNANA
13:00 Legend Double Dagger 8.6 4.1 73 29 29 24.1 98.87     Mostly Cloudy
14:00 Legend Double Dagger 8.8 3.7 70 27 26 24.1 98.92     LegendNANA
15:00 Legend Double Dagger 8.8 3.5 69 28 28 24.1 99.00     LegendNANA
16:00 Legend Double Dagger 7.9 4.0 76 28 23 24.1 99.07     Mostly Cloudy
17:00 Legend Double Dagger 8.1 3.8 74 30 23 24.1 99.17     LegendNANA
18:00 Legend Double Dagger 8.0 3.7 74 27 19 24.1 99.24     LegendNANA
19:00 Legend Double Dagger 7.3 4.1 80 28 27 24.1 99.32     Cloudy
20:00 Legend Double Dagger 7.4 3.3 75 29 28 24.1 99.38     LegendNANA
21:00 Legend Double Dagger 7.2 3.6 78 27 22 24.1 99.44     LegendNANA
22:00 Legend Double Dagger 6.9 3.4 78 29 26 24.1 99.46     Mostly Cloudy
23:00 Legend Double Dagger 6.4 2.9 78 30 26 24.1 99.50     LegendNANA

Notes on Data Quality.

Legend

  • E = Estimated
  • M = Missing
  • NA = Not Available
  • ‡ = Partner data that is not subject to review by the National Climate Archives
Date modified: